Weather History for Winona, MN

Change the Weather History Date:

Monday, April 7, 2014

  Actual Average Record
Temperature  
Mean Temperature 48 °F -  
Max Temperature 59 °F 58 °F 74 °F (1992)
Min Temperature 35 °F 38 °F 17 °F (2007)
Degree Days  
Heating Degree Days 17    
Moisture  
Dew Point 41 °F    
Average Humidity 80    
Maximum Humidity 100    
Minimum Humidity 51    
Precipitation  
Precipitation 0.02 in - - ()
Sea Level Pressure  
Sea Level Pressure 29.79 in    
Wind  
Wind Speed 1 mph (NNW)    
Max Wind Speed 14 mph    
Max Gust Speed 24 mph    
Visibility 8 miles    
Events Rain , Thunderstorm    
Averages and records for this station are not official NWS values.
T = Trace of Precipitation, MM = Missing Value Source: NWS Daily Summary

Daily Weather History Graph

Daily Weather History Graph

Search for Another Location

Airport:

Trip Planner

Search our weather history database for the weather conditions in past years. The results will help you decide how hot, cold, wet, or windy it might be!

Date:

Astronomy

Apr. 07, 2014 Rise Set
Actual Time 6:37 AM CDT 7:41 PM CDT
Civil Twilight 6:07 AM CDT 8:10 PM CDT
Nautical Twilight 5:32 AM CDT 8:46 PM CDT
Astronomical Twilight 4:55 AM CDT 9:23 PM CDT
Moon 12:28 PM CDT (4/7) 2:24 AM CDT (4/7)
Length of Visible Light 14h 03m
Length of Day
13h 03m
First Quarter, 53% of the Moon is Illuminated
Apr 7
First Quarter
Apr 15
Full
Apr 22
Last Quarter
Apr 29
New
May 6
First Quarter

Hourly Weather History & Observations

Time (CDT) Temp. Windchill Dew Point Humidity Pressure Visibility Wind Dir Wind Speed Gust Speed Precip Events Conditions
12:00 AM 50.0 °F - 42.8 °F 76% 29.88 in 10.0 mi Calm Calm - N/A   Mostly Cloudy
12:19 AM 51.8 °F - 44.6 °F 76% 29.87 in 10.0 mi Calm Calm - N/A   Scattered Clouds
12:40 AM 50.0 °F - 42.8 °F 76% 29.86 in 10.0 mi Calm Calm - N/A   Clear
1:00 AM 48.2 °F - 44.6 °F 87% 29.87 in 10.0 mi Calm Calm - N/A   Clear
1:21 AM 48.2 °F - 42.8 °F 82% 29.87 in 10.0 mi Calm Calm - N/A   Scattered Clouds
1:40 AM 48.2 °F - 44.6 °F 87% 29.87 in 10.0 mi Calm Calm - N/A   Overcast
2:00 AM 46.4 °F - 42.8 °F 87% 29.86 in 10.0 mi Calm Calm - N/A   Mostly Cloudy
2:21 AM 46.4 °F - 42.8 °F 87% 29.85 in 10.0 mi Calm Calm - N/A   Overcast
2:40 AM 46.4 °F - 42.8 °F 87% 29.84 in 10.0 mi Calm Calm - N/A   Overcast
3:00 AM 44.6 °F - 42.8 °F 93% 29.83 in 7.0 mi Calm Calm - N/A   Overcast
3:20 AM 42.8 °F - 41.0 °F 93% 29.83 in 5.0 mi Calm Calm - N/A   Overcast
3:40 AM 42.8 °F - 41.0 °F 93% 29.83 in 7.0 mi Calm Calm - N/A   Mostly Cloudy
4:00 AM 42.8 °F - 41.0 °F 93% 29.82 in 5.0 mi Calm Calm - N/A   Mostly Cloudy
4:20 AM 42.8 °F - 41.0 °F 93% 29.82 in 5.0 mi Calm Calm - N/A   Overcast
4:40 AM 42.8 °F - 41.0 °F 93% 29.82 in 5.0 mi Calm Calm - N/A   Overcast
5:00 AM 42.8 °F - 41.0 °F 93% 29.81 in 5.0 mi Calm Calm - N/A   Overcast
5:20 AM 42.8 °F - 41.0 °F 93% 29.81 in 5.0 mi Calm Calm - N/A   Overcast
5:40 AM 41.0 °F - 41.0 °F 100% 29.81 in 4.0 mi Calm Calm - N/A   Overcast
6:00 AM 42.8 °F - 41.0 °F 93% 29.81 in 5.0 mi Calm Calm - N/A   Overcast
6:20 AM 41.0 °F - 41.0 °F 100% 29.81 in 4.0 mi Calm Calm - N/A   Overcast
6:40 AM 41.0 °F - 41.0 °F 100% 29.82 in 5.0 mi Calm Calm - N/A   Overcast
7:00 AM 41.0 °F - 39.2 °F 93% 29.82 in 4.0 mi Calm Calm - N/A   Overcast
7:20 AM 41.0 °F - 39.2 °F 93% 29.82 in 4.0 mi Calm Calm - N/A   Overcast
7:40 AM 41.0 °F - 41.0 °F 100% 29.82 in 4.0 mi Calm Calm - N/A   Mostly Cloudy
8:00 AM 42.8 °F - 41.0 °F 93% 29.82 in 4.0 mi Calm Calm - N/A   Light Drizzle
8:20 AM 42.8 °F - 41.0 °F 93% 29.82 in 4.0 mi Calm Calm - N/A   Light Drizzle
8:40 AM 42.8 °F - 42.8 °F 100% 29.82 in 4.0 mi Calm Calm - N/A Rain Light Rain
9:00 AM 44.6 °F - 42.8 °F 93% 29.81 in 5.0 mi Calm Calm - N/A   Light Drizzle
9:20 AM 46.4 °F - 42.8 °F 87% 29.80 in 5.0 mi Calm Calm - N/A   Overcast
9:40 AM 46.4 °F - 42.8 °F 87% 29.81 in 7.0 mi Calm Calm - N/A   Overcast
10:00 AM 46.4 °F - 42.8 °F 87% 29.80 in 5.0 mi Calm Calm - N/A   Overcast
10:20 AM 48.2 °F - 44.6 °F 87% 29.81 in 7.0 mi Calm Calm - N/A   Overcast
10:40 AM 48.2 °F - 44.6 °F 87% 29.81 in 7.0 mi Calm Calm - N/A   Overcast
11:00 AM 48.2 °F - 44.6 °F 87% 29.80 in 7.0 mi Calm Calm - N/A   Overcast
11:20 AM 48.2 °F - 44.6 °F 87% 29.80 in 7.0 mi Calm Calm - N/A   Overcast
11:40 AM 48.2 °F - 44.6 °F 87% 29.80 in 10.0 mi Calm Calm - N/A   Overcast
12:00 PM 50.0 °F - 44.6 °F 82% 29.79 in 10.0 mi North 3.5 mph - N/A   Overcast
12:20 PM 51.8 °F - 44.6 °F 76% 29.79 in 10.0 mi NNW 5.8 mph - N/A   Overcast
12:40 PM 50.0 °F - 42.8 °F 76% 29.78 in 10.0 mi NNW 8.1 mph - N/A   Overcast
1:00 PM 48.2 °F - 42.8 °F 82% 29.78 in 10.0 mi NNW 6.9 mph - N/A   Overcast
1:20 PM 48.2 °F - 44.6 °F 87% 29.77 in 5.0 mi Calm Calm - N/A Rain Light Rain
1:40 PM 48.2 °F - 44.6 °F 87% 29.77 in 7.0 mi WNW 4.6 mph - 0.01 in Rain Light Rain
2:00 PM 50.0 °F - 44.6 °F 82% 29.75 in 10.0 mi ESE 3.5 mph - N/A   Overcast
2:20 PM 53.6 °F - 46.4 °F 77% 29.74 in 10.0 mi NNW 3.5 mph - N/A   Scattered Clouds
2:40 PM 53.6 °F - 44.6 °F 72% 29.74 in 10.0 mi North 3.5 mph - N/A   Clear
3:00 PM 53.6 °F - 44.6 °F 72% 29.74 in 10.0 mi North 5.8 mph - N/A   Scattered Clouds
3:20 PM 55.4 °F - 44.6 °F 67% 29.73 in 7.0 mi North 3.5 mph - N/A   Scattered Clouds
3:40 PM 55.4 °F - 42.8 °F 63% 29.73 in 10.0 mi NNW 4.6 mph - N/A   Clear
4:00 PM 55.4 °F - 42.8 °F 63% 29.72 in 10.0 mi NNW 4.6 mph - N/A   Clear
4:20 PM 55.4 °F - 41.0 °F 58% 29.72 in 10.0 mi Calm Calm - N/A   Clear
4:40 PM 57.2 °F - 41.0 °F 55% 29.72 in 10.0 mi NNW 6.9 mph - N/A Thunderstorm Thunderstorm
5:00 PM 59.0 °F - 41.0 °F 51% 29.71 in 10.0 mi NW 6.9 mph - N/A   Scattered Clouds
5:20 PM 53.6 °F - 42.8 °F 67% 29.72 in 7.0 mi North 5.8 mph - 0.01 in Rain Light Rain
5:40 PM 53.6 °F - 39.2 °F 58% 29.72 in 10.0 mi Calm Calm - 0.01 in   Mostly Cloudy
6:00 PM 55.4 °F - 41.0 °F 58% 29.72 in 10.0 mi NW 5.8 mph - N/A   Scattered Clouds
6:20 PM 55.4 °F - 41.0 °F 58% 29.72 in 10.0 mi NNW 4.6 mph - N/A   Scattered Clouds
6:40 PM 55.4 °F - 41.0 °F 58% 29.72 in 10.0 mi NW 6.9 mph - N/A   Mostly Cloudy
7:00 PM 55.4 °F - 41.0 °F 58% 29.72 in 10.0 mi NNE 5.8 mph - N/A   Overcast
7:20 PM 53.6 °F - 39.2 °F 58% 29.72 in 10.0 mi NNW 13.8 mph 24.2 mph N/A   Overcast
7:40 PM 53.6 °F - 39.2 °F 58% 29.73 in 10.0 mi NW 13.8 mph 19.6 mph N/A   Mostly Cloudy
8:00 PM 50.0 °F - 37.4 °F 62% 29.74 in 10.0 mi NW 8.1 mph - N/A   Scattered Clouds
8:20 PM 48.2 °F - 37.4 °F 66% 29.75 in 10.0 mi NW 10.4 mph - N/A   Clear
8:40 PM 48.2 °F - 37.4 °F 66% 29.75 in 10.0 mi NNW 10.4 mph - N/A   Clear
9:00 PM 48.2 °F - 37.4 °F 66% 29.76 in 10.0 mi NNW 6.9 mph - N/A   Clear
9:20 PM 46.4 °F 44.3 °F 35.6 °F 66% 29.77 in 10.0 mi NW 4.6 mph - N/A   Clear
9:40 PM 46.4 °F - 35.6 °F 66% 29.77 in 10.0 mi Calm Calm - N/A   Clear
10:00 PM 44.6 °F - 35.6 °F 71% 29.77 in 10.0 mi Calm Calm - N/A   Clear
10:20 PM 42.8 °F - 35.6 °F 76% 29.77 in 10.0 mi Calm Calm - N/A   Clear
10:40 PM 41.0 °F - 35.6 °F 81% 29.77 in 10.0 mi Calm Calm - N/A   Clear
11:00 PM 41.0 °F - 33.8 °F 76% 29.77 in 10.0 mi Calm Calm - N/A   Clear
11:21 PM 37.4 °F - 33.8 °F 87% 29.77 in 10.0 mi Calm Calm - N/A   Clear
11:40 PM 35.6 °F - 33.8 °F 93% 29.77 in 10.0 mi Calm Calm - N/A   Clear